Weather History for Algona, IA

Change the Weather History Date:

Thursday, October 4, 2012

  Actual Average Record
Temperature  
Mean Temperature 52 °F -  
Max Temperature 62 °F 65 °F 87 °F (2005)
Min Temperature 41 °F 42 °F 30 °F (1999)
Degree Days  
Heating Degree Days 14    
Growing Degree Days 2 (Base 50)    
Moisture  
Dew Point 34 °F    
Average Humidity 57    
Maximum Humidity 76    
Minimum Humidity 34    
Precipitation  
Precipitation 0.00 in - - ()
Sea Level Pressure  
Sea Level Pressure 30.10 in    
Wind  
Wind Speed 18 mph (WNW)    
Max Wind Speed 25 mph    
Max Gust Speed 36 mph    
Visibility 10 miles    
Events      
Averages and records for this station are not official NWS values.
T = Trace of Precipitation, MM = Missing Value Source: NWS Daily Summary

Daily Weather History Graph

Daily Weather History Graph

Search for Another Location

Airport:

Trip Planner

Search our weather history database for the weather conditions in past years. The results will help you decide how hot, cold, wet, or windy it might be!

Date:

Astronomy

Oct. 04, 2012 Rise Set
Actual Time 7:18 AM CDT 6:52 PM CDT
Civil Twilight 6:50 AM CDT 7:20 PM CDT
Nautical Twilight 6:17 AM CDT 7:53 PM CDT
Astronomical Twilight 5:43 AM CDT 8:26 PM CDT
Moon 9:21 PM CDT (10/4) 11:43 AM CDT (10/4)
Length of Visible Light 12h 30m
Length of Day
11h 33m
Waning Gibbous, 82% of the Moon is Illuminated
Oct 4
Waning Gibbous
Oct 8
Last Quarter
Oct 15
New
Oct 21
First Quarter
Oct 29
Full

Hourly Weather History & Observations

Time (CDT) Temp. Windchill Dew Point Humidity Pressure Visibility Wind Dir Wind Speed Gust Speed Precip Events Conditions
12:15 AM 62.6 °F - 33.8 °F 34% 29.85 in 10.0 mi South 17.3 mph 24.2 mph N/A   Clear
12:35 AM 62.6 °F - 35.6 °F 37% 29.85 in 10.0 mi South 21.9 mph - N/A   Clear
12:55 AM 62.6 °F - 35.6 °F 37% 29.85 in 10.0 mi South 19.6 mph 26.5 mph N/A   Clear
1:15 AM 59.0 °F - 37.4 °F 45% 29.87 in 10.0 mi SSW 16.1 mph 21.9 mph N/A   Clear
1:35 AM 59.0 °F - 37.4 °F 45% 29.87 in 10.0 mi SW 19.6 mph - N/A   Clear
1:55 AM 57.2 °F - 37.4 °F 48% 29.89 in 9.0 mi WSW 18.4 mph - N/A   Scattered Clouds
2:15 AM 53.6 °F - 39.2 °F 58% 29.91 in 8.0 mi West 19.6 mph 31.1 mph N/A   Overcast
2:35 AM 51.8 °F - 39.2 °F 62% 29.92 in 10.0 mi West 17.3 mph 26.5 mph N/A   Overcast
2:55 AM 50.0 °F - 41.0 °F 71% 29.93 in 10.0 mi West 18.4 mph 24.2 mph N/A   Partly Cloudy
3:15 AM 50.0 °F - 41.0 °F 71% 29.93 in 10.0 mi West 18.4 mph - N/A   Clear
3:35 AM 50.0 °F - 41.0 °F 71% 29.94 in 10.0 mi West 19.6 mph 26.5 mph N/A   Mostly Cloudy
3:55 AM 48.2 °F - 41.0 °F 76% 29.95 in 10.0 mi West 19.6 mph 28.8 mph N/A   Overcast
4:15 AM 48.2 °F - 39.2 °F 71% 29.96 in 10.0 mi West 15.0 mph 21.9 mph N/A   Overcast
4:35 AM 48.2 °F - 39.2 °F 71% 29.98 in 10.0 mi West 17.3 mph - N/A   Overcast
4:55 AM 48.2 °F - 39.2 °F 71% 30.00 in 10.0 mi West 16.1 mph 23.0 mph N/A   Partly Cloudy
5:15 AM 48.2 °F - 39.2 °F 71% 30.01 in 10.0 mi West 19.6 mph - N/A   Mostly Cloudy
5:35 AM 46.4 °F 38.7 °F 39.2 °F 76% 30.00 in 10.0 mi WNW 20.7 mph 27.6 mph N/A   Mostly Cloudy
5:55 AM 46.4 °F 39.2 °F 39.2 °F 76% 30.02 in 10.0 mi West 18.4 mph 27.6 mph N/A   Partly Cloudy
6:15 AM 46.4 °F 40.1 °F 37.4 °F 71% 30.02 in 10.0 mi WNW 15.0 mph 25.3 mph N/A   Mostly Cloudy
6:35 AM 46.4 °F 39.8 °F 37.4 °F 71% 30.02 in 9.0 mi West 16.1 mph 25.3 mph N/A   Overcast
6:55 AM 46.4 °F 39.2 °F 39.2 °F 76% 30.03 in 10.0 mi WNW 18.4 mph 27.6 mph N/A   Light Drizzle
7:15 AM 44.6 °F 37.2 °F 37.4 °F 76% 30.05 in 10.0 mi WNW 17.3 mph 24.2 mph N/A   Mostly Cloudy
7:35 AM 44.6 °F 37.4 °F 37.4 °F 76% 30.05 in 10.0 mi WNW 16.1 mph - N/A   Mostly Cloudy
7:55 AM 44.6 °F 36.6 °F 35.6 °F 71% 30.05 in 10.0 mi WNW 19.6 mph - N/A   Mostly Cloudy
8:15 AM 44.6 °F 37.4 °F 35.6 °F 71% 30.06 in 10.0 mi WNW 16.1 mph 27.6 mph N/A   Scattered Clouds
8:35 AM 44.6 °F 36.6 °F 35.6 °F 71% 30.07 in 9.0 mi WNW 19.6 mph 27.6 mph N/A   Partly Cloudy
8:55 AM 44.6 °F 35.5 °F 33.8 °F 66% 30.07 in 10.0 mi NW 25.3 mph 32.2 mph N/A   Scattered Clouds
9:15 AM 44.6 °F 36.1 °F 35.6 °F 71% 30.08 in 10.0 mi WNW 21.9 mph 28.8 mph N/A   Mostly Cloudy
9:35 AM 46.4 °F 38.1 °F 35.6 °F 66% 30.09 in 9.0 mi WNW 24.2 mph 29.9 mph N/A   Mostly Cloudy
9:55 AM 46.4 °F 38.3 °F 35.6 °F 66% 30.10 in 9.0 mi WNW 23.0 mph 29.9 mph N/A   Overcast
10:15 AM 46.4 °F 37.9 °F 33.8 °F 62% 30.10 in 10.0 mi NW 25.3 mph 32.2 mph N/A   Mostly Cloudy
10:35 AM 46.4 °F 38.3 °F 33.8 °F 62% 30.11 in 10.0 mi WNW 23.0 mph 31.1 mph N/A   Overcast
10:55 AM 46.4 °F 39.2 °F 33.8 °F 62% 30.12 in 10.0 mi NW 18.4 mph 35.7 mph N/A   Overcast
11:15 AM 48.2 °F - 33.8 °F 58% 30.12 in 10.0 mi NW 25.3 mph 34.5 mph N/A   Overcast
11:35 AM 48.2 °F - 32.0 °F 54% 30.13 in 10.0 mi NW 25.3 mph 31.1 mph N/A   Overcast
11:55 AM 48.2 °F - 33.8 °F 58% 30.13 in 10.0 mi NW 19.6 mph 28.8 mph N/A   Overcast
12:15 PM 48.2 °F - 33.8 °F 58% 30.14 in 10.0 mi WNW 18.4 mph 27.6 mph N/A   Overcast
12:35 PM 48.2 °F - 33.8 °F 58% 30.15 in 10.0 mi NW 19.6 mph 29.9 mph N/A   Overcast
12:55 PM 50.0 °F - 32.0 °F 50% 30.15 in 10.0 mi NW 20.7 mph - N/A   Overcast
1:35 PM 53.6 °F - 32.0 °F 44% 30.15 in 10.0 mi WNW 20.7 mph 28.8 mph N/A   Mostly Cloudy
1:55 PM 53.6 °F - 32.0 °F 44% 30.15 in 10.0 mi NW 23.0 mph 28.8 mph N/A   Mostly Cloudy
2:15 PM 53.6 °F - 32.0 °F 44% 30.15 in 10.0 mi WNW 19.6 mph 26.5 mph N/A   Scattered Clouds
2:35 PM 53.6 °F - 32.0 °F 44% 30.16 in 10.0 mi WNW 15.0 mph 28.8 mph N/A   Partly Cloudy
2:55 PM 53.6 °F - 32.0 °F 44% 30.16 in 10.0 mi WNW 19.6 mph 27.6 mph N/A   Scattered Clouds
3:15 PM 53.6 °F - 32.0 °F 44% 30.16 in 10.0 mi WNW 17.3 mph 26.5 mph N/A   Scattered Clouds
3:35 PM 53.6 °F - 30.2 °F 41% 30.16 in 10.0 mi WNW 18.4 mph 31.1 mph N/A   Scattered Clouds
3:55 PM 53.6 °F - 30.2 °F 41% 30.17 in 10.0 mi NW 21.9 mph 29.9 mph N/A   Partly Cloudy
4:15 PM 53.6 °F - 30.2 °F 41% 30.17 in 10.0 mi WNW 16.1 mph 25.3 mph N/A   Partly Cloudy
4:35 PM 51.8 °F - 30.2 °F 44% 30.18 in 10.0 mi NW 18.4 mph 26.5 mph N/A   Partly Cloudy
4:55 PM 51.8 °F - 30.2 °F 44% 30.18 in 10.0 mi NW 18.4 mph 26.5 mph N/A   Clear
5:15 PM 51.8 °F - 30.2 °F 44% 30.18 in 10.0 mi NW 20.7 mph 27.6 mph N/A   Partly Cloudy
5:35 PM 51.8 °F - 30.2 °F 44% 30.19 in 10.0 mi NW 18.4 mph 28.8 mph N/A   Clear
5:55 PM 50.0 °F - 30.2 °F 47% 30.19 in 10.0 mi NW 17.3 mph 24.2 mph N/A   Clear
6:15 PM 50.0 °F - 30.2 °F 47% 30.19 in 10.0 mi NW 12.7 mph 20.7 mph N/A   Clear
6:35 PM 48.2 °F - 30.2 °F 50% 30.20 in 10.0 mi NW 15.0 mph 21.9 mph N/A   Clear
6:55 PM 48.2 °F - 30.2 °F 50% 30.21 in 10.0 mi NW 12.7 mph - N/A   Clear
7:15 PM 46.4 °F 41.1 °F 28.4 °F 50% 30.22 in 10.0 mi NW 11.5 mph - N/A   Clear
7:35 PM 44.6 °F 39.2 °F 28.4 °F 53% 30.22 in 10.0 mi NW 10.4 mph 16.1 mph N/A   Clear
7:55 PM 44.6 °F 39.7 °F 28.4 °F 53% 30.22 in 10.0 mi NW 9.2 mph - N/A   Partly Cloudy
8:15 PM 44.6 °F 38.4 °F 28.4 °F 53% 30.22 in - NW 12.7 mph - N/A   Mostly Cloudy
8:35 PM 44.6 °F 38.1 °F 28.4 °F 53% 30.22 in 10.0 mi NNW 13.8 mph - N/A   Partly Cloudy
8:55 PM 44.6 °F 38.8 °F 28.4 °F 53% 30.22 in 10.0 mi NW 11.5 mph - N/A   Clear
9:15 PM 44.6 °F 38.8 °F 28.4 °F 53% 30.22 in 10.0 mi NW 11.5 mph - N/A   Clear
9:35 PM 42.8 °F 36.6 °F 28.4 °F 57% 30.22 in 10.0 mi NW 11.5 mph 18.4 mph N/A   Clear
9:55 PM 42.8 °F 37.5 °F 28.4 °F 57% 30.23 in 10.0 mi NW 9.2 mph - N/A   Mostly Cloudy
10:15 PM 42.8 °F 37.5 °F 28.4 °F 57% 30.24 in 10.0 mi NW 9.2 mph - N/A   Overcast
10:35 PM 42.8 °F 36.6 °F 28.4 °F 57% 30.23 in 10.0 mi NW 11.5 mph - N/A   Overcast
10:55 PM 42.8 °F 36.6 °F 28.4 °F 57% 30.23 in 10.0 mi NW 11.5 mph 20.7 mph N/A   Mostly Cloudy
11:15 PM 42.8 °F 38.0 °F 28.4 °F 57% 30.24 in 10.0 mi NW 8.1 mph - N/A   Overcast
11:35 PM 41.0 °F 34.3 °F 28.4 °F 61% 30.25 in 10.0 mi NW 11.5 mph - N/A   Mostly Cloudy
11:55 PM 41.0 °F 34.3 °F 26.6 °F 57% 30.25 in 10.0 mi NW 11.5 mph 17.3 mph N/A   Partly Cloudy